(369395) = 2004 RD219 = 2009 VZ82

Discovered at Kitt Peak on 2009-11-09 by Spacewatch.

Orbit

Orbit type: Main Belt

Note: WebGL enabled browser required.

epoch2023-09-13.0
epoch JD2460200.5
perihelion date2022-11-17.97507
perihelion JD2459901.47507
argument of perihelion (°)62.61375
ascending node (°)259.43835
inclination (°)10.76348
eccentricity0.1613842
perihelion distance (AU)2.3321158
Tisserand w.r.t. Jupiter3.3
ΔV w.r.t. Earth (km/sec)10.1
semimajor axis (AU)2.7809109
mean anomaly (°)63.55221
mean daily motion (°/day)0.21253150
aphelion distance (AU)3.230
period (years)4.64
P-vector [x]0.77321313
P-vector [y]-0.62753499
P-vector [z]-0.09133070
Q-vector [x]0.60698904
Q-vector [y]0.69068895
Q-vector [z]0.39308151
absolute magnitude16.57
phase slope0.15
uncertainty0
referenceMPEC 2024-A05
observations used189
oppositions10
arc length (days)7050
first opposition used2004
last opposition used2023
residual rms (arc-secs)0.86
perturbers coarse indicatorM-v
perturbers precise indicator003Ek
first observation date used2004-09-11.0
last observation date used2023-12-31.0
computer nameMPCLINUX
JD of orbit computation2456552.246813
perihelion JD uncertainty (days)1.5405E-04
argument of perihelion uncertainty (°)6.8179E-05
ascending node uncertainty (°)5.4866E-05
inclination uncertainty (°)8.4691E-06
eccentricity uncertainty 1.0570E-07
perihelion distance uncertainty (AU)3.2082E-07
Minimum Orbit Intersection Distances (in AU)
for orbit epoch: 2460200.5, reference: E2024-A05
Mercury1.92687
Venus1.62814
Earth1.34149
Mars0.98775
Jupiter2.10514
Saturn5.95886
Uranus15.3158
Neptune27.0284

Observations

194 total observations over interval: 2004 09 11.29745 – 2023 12 31.257352
These data are available for download (format description).

Date (UT) J2000 RA J2000 Dec Magn Location Ref
2004 09 11.29745 23 57 28.85 +19 09 02.4 20.3   704 – Lincoln Laboratory ETS, New Mexico MPS 113264
2004 09 11.30925 23 57 28.26 +19 08 58.6 19.9   704 – Lincoln Laboratory ETS, New Mexico MPS 113264
2004 09 11.32163 23 57 27.70 +19 08 56.3 20.3   704 – Lincoln Laboratory ETS, New Mexico MPS 113264
2004 09 14.30028 23 55 08.61 +18 57 29.9 19.4   704 – Lincoln Laboratory ETS, New Mexico MPS 113264
2004 09 14.31146 23 55 08.00 +18 57 26.7 19.9   704 – Lincoln Laboratory ETS, New Mexico MPS 113264
2004 09 14.32270 23 55 07.44 +18 57 24.1 19.4   704 – Lincoln Laboratory ETS, New Mexico MPS 113264
2004 09 14.34515 23 55 06.25 +18 57 18.2 20.0   704 – Lincoln Laboratory ETS, New Mexico MPS 113264
2004 10 06.36803 23 38 18.06 +16 31 03.2 19.6   644 – Palomar Mountain/NEAT MPS 306791
2004 10 06.38899 23 38 17.23 +16 30 52.5 19.2   644 – Palomar Mountain/NEAT MPS 306791
2004 10 06.41146 23 38 16.32 +16 30 41.0 19.9   644 – Palomar Mountain/NEAT MPS 306791
2009 10 26.39035 03 15 28.62 +27 46 32.2 19.9 V G96 – Mt. Lemmon Survey MPS 306791
2009 10 26.39712 03 15 28.26 +27 46 29.9 19.8 V G96 – Mt. Lemmon Survey MPS 306791
2009 10 26.40402 03 15 27.90 +27 46 28.4 20.1 V G96 – Mt. Lemmon Survey MPS 306791
2009 10 26.41098 03 15 27.54 +27 46 26.0 20.2 V G96 – Mt. Lemmon Survey MPS 306791
2009 11 09.14228 03 02 57.43 +26 20 18.0 20.4 V 691 – Steward Observatory, Kitt Peak-Spacewatch MPS 305236
2009 11 09.15947 03 02 56.33 +26 20 10.7 20.2 V 691 – Steward Observatory, Kitt Peak-Spacewatch MPS 305236
2009 11 09.17666 03 02 55.45 +26 20 03.4 20.2 V 691 – Steward Observatory, Kitt Peak-Spacewatch MPS 305236
2009 11 09.37366 03 02 43.98 +26 18 38.2 19.6 V G96 – Mt. Lemmon Survey MPS 305236
2009 11 09.38013 03 02 43.65 +26 18 35.2 20.0 V G96 – Mt. Lemmon Survey MPS 305236
2009 11 09.38679 03 02 43.26 +26 18 32.1 19.8 V G96 – Mt. Lemmon Survey MPS 305236
2009 11 09.39443 03 02 42.82 +26 18 29.1 20.1 V G96 – Mt. Lemmon Survey MPS 305236
2009 11 18.07537 02 54 47.80 +25 12 17.9 20.2 V 691 – Steward Observatory, Kitt Peak-Spacewatch MPS 305236
2009 11 18.09307 02 54 46.85 +25 12 09.2 20.2 V 691 – Steward Observatory, Kitt Peak-Spacewatch MPS 305236
2009 11 18.11077 02 54 45.90 +25 12 01.0 20.1 V 691 – Steward Observatory, Kitt Peak-Spacewatch MPS 305236
2012 04 24.36520 12 48 55.559 -19 46 01.44 20.6 w F51 – Pan-STARRS 1, Haleakala MPS 421912
2012 04 24.37995 12 48 54.885 -19 45 54.68 20.7 w F51 – Pan-STARRS 1, Haleakala MPS 421912
2012 04 24.39475 12 48 54.217 -19 45 47.76 20.8 w F51 – Pan-STARRS 1, Haleakala MPS 421912
2013 06 20.56107 21 48 56.836 -01 22 31.47 20.2 w F51 – Pan-STARRS 1, Haleakala MPS 470684
2013 06 20.57412 21 48 56.973 -01 22 24.42 20.4 w F51 – Pan-STARRS 1, Haleakala MPS 470684
2013 06 20.60018 21 48 57.238 -01 22 10.68 20.3 w F51 – Pan-STARRS 1, Haleakala MPS 470684
2013 08 16.44888 21 22 46.535 +02 31 25.46 19.3 r F51 – Pan-STARRS 1, Haleakala MPS 473739
2013 08 16.45958 21 22 45.963 +02 31 24.31 19.5 r F51 – Pan-STARRS 1, Haleakala MPS 473739
2013 08 17.38338 21 21 59.647 +02 29 43.42 19.2 i F51 – Pan-STARRS 1, Haleakala MPS 473739
2013 08 17.39566 21 21 59.005 +02 29 42.01 19.3 i F51 – Pan-STARRS 1, Haleakala MPS 473740
2013 09 05.23153 21 08 24.89 +01 27 22.7 19.7 V 703 – Catalina Sky Survey MPS 476142
2013 09 05.23710 21 08 24.59 +01 27 18.7 19.5 V 703 – Catalina Sky Survey MPS 476142
2013 09 05.24276 21 08 24.40 +01 27 19.0 20.1 V 703 – Catalina Sky Survey MPS 476142
2013 09 05.24835 21 08 24.11 +01 27 18.4 19.5 V 703 – Catalina Sky Survey MPS 476142
2014 11 26.36331 05 49 30.632 +23 25 24.59 20.8 w F51 – Pan-STARRS 1, Haleakala MPS 551461
2014 11 26.37527 05 49 30.027 +23 25 22.33 20.9 w F51 – Pan-STARRS 1, Haleakala MPS 551461
2014 11 26.38724 05 49 29.391 +23 25 20.04 20.8 w F51 – Pan-STARRS 1, Haleakala MPS 551461
2014 12 02.37624 05 44 07.703 +23 04 57.49 20.3 i F51 – Pan-STARRS 1, Haleakala MPS 551461
2014 12 02.38821 05 44 07.003 +23 04 54.77 20.4 i F51 – Pan-STARRS 1, Haleakala MPS 551461
2014 12 02.40021 05 44 06.328 +23 04 52.90 20.2 i F51 – Pan-STARRS 1, Haleakala MPS 551461
2014 12 23.27380 05 23 35.17 +21 47 29.6 20.2 V G96 – Mt. Lemmon Survey MPS 559971
2014 12 23.27838 05 23 34.87 +21 47 28.4 20.3 V G96 – Mt. Lemmon Survey MPS 559971
2014 12 23.28297 05 23 34.59 +21 47 27.9 20.5 V G96 – Mt. Lemmon Survey MPS 559971
2015 01 22.34711 05 03 12.015 +20 10 42.62 21.4 w F51 – Pan-STARRS 1, Haleakala MPS 569467
2015 01 22.36105 05 03 11.720 +20 10 40.75 21.2 w F51 – Pan-STARRS 1, Haleakala MPS 569467
2015 01 22.37496 05 03 11.427 +20 10 38.70 21.3 w F51 – Pan-STARRS 1, Haleakala MPS 569467
2015 01 22.38886 05 03 11.133 +20 10 36.61 21.4 w F51 – Pan-STARRS 1, Haleakala MPS 569467
2015 02 18.12244 05 03 34.83 +19 30 31.9 21.7 R 695 – Kitt Peak MPS 585552
2015 02 18.16654 05 03 35.66 +19 30 29.9   695 – Kitt Peak MPS 585552
2015 02 18.21444 05 03 36.58 +19 30 27.7   695 – Kitt Peak MPS 585552
2015 12 13.58524 10 31 52.456 -02 16 34.99 22.4 w F51 – Pan-STARRS 1, Haleakala MPS 662594
2015 12 13.59800 10 31 52.662 -02 16 39.45 22.1 w F51 – Pan-STARRS 1, Haleakala MPS 662594
2015 12 13.61077 10 31 52.856 -02 16 44.04 22.2 w F51 – Pan-STARRS 1, Haleakala MPS 662594
2015 12 13.62356 10 31 53.047 -02 16 48.95 22.3 w F51 – Pan-STARRS 1, Haleakala MPS 662594
2016 01 11.56875 10 31 23.367 -04 28 03.24 21.7 w F51 – Pan-STARRS 1, Haleakala MPS 671591
2016 01 11.58214 10 31 23.087 -04 28 05.45 22.0 w F51 – Pan-STARRS 1, Haleakala MPS 671591
2016 01 11.59550 10 31 22.819 -04 28 07.91 21.8 w F51 – Pan-STARRS 1, Haleakala MPS 671591
2016 01 11.60888 10 31 22.537 -04 28 09.92 21.9 w F51 – Pan-STARRS 1, Haleakala MPS 671591
2016 01 12.52932 10 31 04.482 -04 30 35.95 22.0 w F51 – Pan-STARRS 1, Haleakala MPS 671591
2016 01 12.54141 10 31 04.225 -04 30 37.78 21.8 w F51 – Pan-STARRS 1, Haleakala MPS 671591
2016 01 12.56556 10 31 03.719 -04 30 41.31 21.6 w F51 – Pan-STARRS 1, Haleakala MPS 671591
2016 01 17.52235 10 29 07.776 -04 41 32.61 21.8 w F51 – Pan-STARRS 1, Haleakala MPS 673844
2016 01 17.54898 10 29 07.042 -04 41 35.61 21.9 w F51 – Pan-STARRS 1, Haleakala MPS 673844
2016 01 17.56230 10 29 06.686 -04 41 37.00 21.8 w F51 – Pan-STARRS 1, Haleakala MPS 673844
2016 03 04.34765 09 54 52.289 -03 13 30.73 21.1 w F51 – Pan-STARRS 1, Haleakala MPS 692393
2016 03 04.36119 09 54 51.641 -03 13 26.83 21.2 w F51 – Pan-STARRS 1, Haleakala MPS 692393
2016 03 04.37469 09 54 50.994 -03 13 22.76 21.3 w F51 – Pan-STARRS 1, Haleakala MPS 692393
2016 03 04.38825 09 54 50.331 -03 13 18.73 21.3 w F51 – Pan-STARRS 1, Haleakala MPS 692393
2016 03 31.32122 09 39 30.260 -00 56 14.44 21.8 w F51 – Pan-STARRS 1, Haleakala MPS 698505
2016 03 31.33165 09 39 30.035 -00 56 11.38 21.5 w F51 – Pan-STARRS 1, Haleakala MPS 698505
2016 03 31.34205 09 39 29.836 -00 56 08.39 21.5 w F51 – Pan-STARRS 1, Haleakala MPS 698505
2018 09 09.30991 01 04 14.74 +23 53 09.9 20.3 G G96 – Mt. Lemmon Survey MPS 918665
2018 09 09.31509 01 04 14.56 +23 53 09.7 20.6 G G96 – Mt. Lemmon Survey MPS 918665
2018 09 09.32026 01 04 14.41 +23 53 09.9 20.4 G G96 – Mt. Lemmon Survey MPS 918665
2018 09 09.32543 01 04 14.24 +23 53 09.8 20.1 G G96 – Mt. Lemmon Survey MPS 918665
2018 09 15.33691 01 00 55.93 +23 47 21.0 19.9 G 703 – Catalina Sky Survey MPS 921690
2018 09 15.34261 01 00 55.61 +23 47 19.8 19.9 G 703 – Catalina Sky Survey MPS 921690
2018 09 15.35400 01 00 55.26 +23 47 17.7 21.1 G 703 – Catalina Sky Survey MPS 921690
2018 09 30.80285 00 49 34.75 +22 47 32.6 19.9 R D29 – Purple Mountain Observatory, XuYi Station MPS 923716
2018 09 30.81699 00 49 34.13 +22 47 26.9 18.7 R D29 – Purple Mountain Observatory, XuYi Station MPS 923716
2018 10 05.26716 00 45 55.26 +22 19 06.4   703 – Catalina Sky Survey MPS 923716
2018 10 05.27242 00 45 54.95 +22 19 04.4 19.8 G 703 – Catalina Sky Survey MPS 923716
2018 10 05.27768 00 45 54.73 +22 19 03.1 20.0 G 703 – Catalina Sky Survey MPS 923716
2018 10 05.28294 00 45 54.44 +22 19 01.8 21.1 G 703 – Catalina Sky Survey MPS 923716
2018 10 06.94310 00 44 32.38 +22 07 19.8 19.0 R K88 – GINOP-KHK, Piszkesteto MPS 923716
2018 10 06.95597 00 44 31.72 +22 07 14.1 19.2 R K88 – GINOP-KHK, Piszkesteto MPS 923716
